Regional Weather Roundup
Issued by NWS Mt. Holly, NJ

Home | Current Version | Previous Version | Text Only | Print | Product List | Glossary On
Versions: 1 2 3 4 5 6 7 8 9 10 11 12 13 14 15 16 17 18 19 20 21 22 23 24 25 26 27
000
ASUS41 KPHI 061012
RWRPHI

REGIONAL WEATHER ROUNDUP
NATIONAL WEATHER SERVICE MOUNT HOLLY NJ
500 AM EST TUE DEC 06 2016

NOTE:  "FAIR" INDICATES FEW OR NO CLOUDS BELOW 12,000 FEET WITH NO
SIGNIFICANT WEATHER AND/OR OBSTRUCTIONS TO VISIBILITY.

 * = STATION DOES NOT REPORT PRECIPITATION (E.G. RAIN, SNOW, ETC.)
        OR FOG.

NJZ015>026-061100-
SOUTHERN NEW JERSEY

CITY           SKY/WX    TMP DP  RH WIND       PRES   REMARKS
POMONA         MOCLDY    35  30  82 N8        30.12F WCI  29
WILDWOOD*      CLOUDY    40  32  73 N5        30.13R
MILLVILLE      CLOUDY    39  32  76 NE7       30.12S WCI  34
WRIGHTSTOWN    CLOUDY    33  29  82 N5        30.10F WCI  29
MOUNT HOLLY    PTCLDY    31  29  92 CALM      30.13F
TRENTON        CLOUDY    33  27  78 N5        30.12S WCI  29

$$
NJZ001>014-061100-
NORTHERN NEW JERSEY

CITY           SKY/WX    TMP DP  RH WIND       PRES   REMARKS
SUSSEX         CLOUDY    23  22  96 CALM      30.12S
ANDOVER*         N/A     25  23  92 CALM      30.12F
MORRISTOWN     PTCLDY    25  25 100 CALM      30.13S
NEWARK         CLOUDY    38  29  70 N6        30.13F WCI  33
TETERBORO      CLEAR     33  27  78 CALM      30.12F
CALDWELL       CLEAR     29  26  89 CALM      30.13F
SOMERVILLE     PTCLDY    25  22  88 CALM      30.12S
ALLAIRE*       CLOUDY    31  29  92 W5        30.13S WCI  26
TOMS RIVER*    PTCLDY    29  27  92 N3        30.14S

$$
PAZ043-044-047-054-055-060>062-066>071-061100-
EASTERN PENNSYLVANIA

CITY           SKY/WX    TMP DP  RH WIND       PRES   REMARKS
PHILADELPHIA   MOCLDY    39  29  67 N6        30.15R WCI  35
NORTH PHILA    CLOUDY    36  29  75 N3        30.15S
BLUE BELL*     CLOUDY    30  30 100 CALM      30.13S
DOYLESTOWN     CLOUDY    31  28  89 CALM      30.12S
QUAKERTOWN*    PTCLDY    25  25 100 CALM      30.14R
PERKASIE*      FAIR      27  27 100 CALM      30.13S
POTTSTOWN      PTCLDY    28  25  88 CALM      30.15R
LANCASTER      PTCLDY    30  29  96 E5        30.12F WCI  25
COATESVILLE    PTCLDY    37  28  70 N5        30.12S WCI  34
READING        PTCLDY    30  27  88 CALM      30.13S
ALLENTOWN      CLOUDY    27  24  89 CALM      30.13S
MOUNT POCONO   CLOUDY    23  21  92 NW3       30.06F
HAZLETON       CLOUDY    25  18  74 MISG      30.11S
LEHIGHTON        N/A     23  21  93 CALM      30.15S
WILKES BARRE   CLEAR     28  24  85 CALM      30.11S

$$
DEZALL-MDZ008-012-015-019-020-061100-
DELAWARE AND EASTERN MARYLAND

CITY           SKY/WX    TMP DP  RH WIND       PRES   REMARKS
WILMINGTON     PTCLDY    37  30  75 N7        30.14R WCI  32
DOVER          CLOUDY    39  37  93 N9        30.11S WCI  33
GEORGETOWN     PTCLDY    42  35  76 NE9       30.10F
EASTON         CLOUDY    42  32  68 E8        30.14R
ABERDEEN       CLOUDY    36  32  86 NE5       30.12F WCI  32
PATUXENT       CLOUDY    43  32  65 NE6       30.12R
OCEAN CITY     MOCLDY    46  35  65 NE10G20   30.09F
WALLOPS ISLAND CLOUDY    43  37  79 NE6       30.10F
SALISBURY      CLOUDY    41  36  82 CALM      30.10F

$$
PAZ001-021-NYZ056-072-MDZ011-DCZ001-061100-
OTHER NEARBY LOCATIONS

CITY           SKY/WX    TMP DP  RH WIND       PRES   REMARKS
HARRISBURG     MOCLDY    31  29  92 CALM      30.12F
STATE COLLEGE  CLOUDY    26  25  95 CALM      30.07F
WILLIAMSPORT   CLEAR     32  25  75 CALM      30.13S
BINGHAMTON     CLEAR     28  24  85 N6        30.06S WCI  22
NEW YORK CITY  CLEAR     40  27  59 CALM      30.14F
BALTIMORE      CLOUDY    42  31  64 NE10      30.10F
WASHINGTON DC  CLOUDY    43  33  68 NE5       30.12R

$$




USA.gov is the U.S. government's official web portal to all federal, state and local government web resources and services.